Location: Newark
(45.1167°N, 7.8833°E)
Time: 10:27:20
(UTC+00:00)

Envisat - Visible Passes

Search period start: 15 September 2019 00:00
Search period end: 25 September 2019 00:00
Orbit: 764 x 766 km, 98.1° (Epoch: 15 September)

Date Brightness Start Highest point End Pass type
(mag) Time Alt. Az. Time Alt. Az. Time Alt. Az.
15 Sep 6.1 19:13:04 10° WSW 19:15:11 12° W 19:17:18 10° WNW visible
16 Sep 5.3 18:33:45 10° SSW 18:38:00 27° W 18:42:17 10° NW visible
18 Sep 5.9 19:00:44 10° SW 19:03:46 16° W 19:06:50 10° NW visible
19 Sep 4.9 18:22:06 10° SSW 18:26:40 33° W 18:31:15 10° NNW visible
21 Sep 5.8 18:48:44 10° SW 18:52:24 20° W 18:56:05 10° NW visible
22 Sep 4.5 18:10:33 10° SSW 18:15:21 41° W 18:20:10 10° NNW visible
23 Sep 6.2 19:16:41 10° WSW 19:18:14 11° W 19:19:47 10° WNW visible
24 Sep 5.4 18:36:55 10° SSW 18:41:02 25° W 18:45:10 10° NW visible
